User: anonymous   Login
Location: eljas
(40.1958°N, 6.8661°W)
Time: 19:34:59
(UTC+01:00)
Language:

Okean O Rocket - Orbit

View from above orbital plane
View from above orbital plane
View from above satellite
View from above satellite

Ground track
Ground track

The orbit data is extracted from the following two-line orbital elements,

1 25861U 99039B   18019.87707758 +.00000051 +00000-0 +14445-4 0  9998
2 25861 098.1343 358.0000 0017002 103.2596 287.1109 14.78457130997681
Epoch (UTC): 19 January 2018 21:02:59
Eccentricity: 0.0017002
inclination: 98.1343°
perigee height: 622 km
apogee height: 646 km
right ascension of ascending node: 358.0000°
argument of perigee: 103.2596°
revolutions per day: 14.78457130
mean anomaly at epoch: 287.1109°
orbit number at epoch: 99768

The dashed part of the orbit path shows where the satellite is in the earth's shadow,  

DLR